TimeCDT,TemperatureF,Dew PointF,Humidity,Sea Level PressureIn,VisibilityMPH,Wind Direction,Wind SpeedMPH,Gust SpeedMPH,PrecipitationIn,Events,Conditions,WindDirDegrees,DateUTC
12:52 AM,54.0,53.1,97,30.14,10.0,South,6.9,-,N/A,,Clear,180,2013-08-18 05:52:00
1:52 AM,54.0,53.1,97,30.14,9.0,South,5.8,-,N/A,,Clear,180,2013-08-18 06:52:00
2:52 AM,54.0,52.0,93,30.14,9.0,South,5.8,-,N/A,,Clear,180,2013-08-18 07:52:00
3:52 AM,53.1,51.1,93,30.14,8.0,South,3.5,-,N/A,,Clear,180,2013-08-18 08:52:00
4:52 AM,51.1,50.0,96,30.14,6.0,South,6.9,-,N/A,,Clear,170,2013-08-18 09:52:00
5:52 AM,52.0,51.1,97,30.15,7.0,South,5.8,-,N/A,,Clear,180,2013-08-18 10:52:00
6:52 AM,50.0,48.9,96,30.16,4.0,SW,6.9,-,N/A,,Clear,230,2013-08-18 11:52:00
7:52 AM,55.9,55.0,97,30.15,5.0,South,5.8,-,N/A,,Clear,190,2013-08-18 12:52:00
8:52 AM,62.1,57.9,86,30.16,9.0,South,6.9,-,N/A,,Clear,180,2013-08-18 13:52:00
9:52 AM,69.1,60.1,73,30.15,10.0,South,6.9,-,N/A,,Clear,190,2013-08-18 14:52:00
10:52 AM,73.9,60.1,62,30.14,10.0,South,8.1,-,N/A,,Clear,190,2013-08-18 15:52:00
11:52 AM,75.9,57.0,52,30.13,10.0,South,15.0,19.6,N/A,,Partly Cloudy,170,2013-08-18 16:52:00
12:52 PM,77.0,57.0,50,30.12,10.0,South,12.7,-,N/A,,Partly Cloudy,180,2013-08-18 17:52:00
1:52 PM,78.1,57.0,48,30.09,10.0,South,12.7,21.9,N/A,,Partly Cloudy,190,2013-08-18 18:52:00
2:52 PM,79.0,57.9,48,30.08,10.0,SSW,12.7,20.7,N/A,,Clear,200,2013-08-18 19:52:00
3:52 PM,79.0,55.9,45,30.08,10.0,South,13.8,-,N/A,,Clear,190,2013-08-18 20:52:00
4:52 PM,77.0,55.9,48,30.07,10.0,South,9.2,-,N/A,,Clear,180,2013-08-18 21:52:00
5:52 PM,78.1,57.0,48,30.06,10.0,South,12.7,18.4,N/A,,Clear,180,2013-08-18 22:52:00
6:52 PM,75.9,55.9,50,30.06,10.0,SSW,8.1,-,N/A,,Clear,200,2013-08-18 23:52:00
7:52 PM,68.0,60.1,76,30.05,10.0,South,4.6,-,N/A,,Clear,180,2013-08-19 00:52:00
8:52 PM,64.0,59.0,84,30.05,10.0,South,6.9,-,N/A,,Clear,180,2013-08-19 01:52:00
9:52 PM,63.0,59.0,87,30.05,10.0,SSW,6.9,-,N/A,,Clear,200,2013-08-19 02:52:00
10:52 PM,63.0,57.9,84,30.04,10.0,SSW,5.8,-,N/A,,Clear,200,2013-08-19 03:52:00
11:52 PM,61.0,57.9,90,30.04,10.0,South,5.8,-,N/A,,Clear,190,2013-08-19 04:52:00